When you browse on this site, cookies collect data to enhance your experience and personalize the content and advertising you see.
Visit our Privacy Policy to learn more. By continuing to use the site, you agree to this use of cookies and data.
  • In Deutschland
  • Länderverzeichnis
  • Für 7 Tage
  • Wassertemperatur
  • Wetterkarte
  • Widgets
  • user-avatar
    Anmelden

    Stündliche Wetter Cordoba

    Heute, 9 Dezember, Montag

    Zeit Temperatur Niederschläge Wind Luftdruck Luftfeuchtigkeit
    00:00 +24°C° 0 mm 2 m/S 722 mmHg 46%
    01:00 +24°C° 0 mm 2 m/S 722 mmHg 44%
    02:00 +23°C° 0 mm 2 m/S 722 mmHg 43%
    03:00 +23°C° 0 mm 2 m/S 722 mmHg 42%
    04:00 +23°C° 0 mm 2 m/S 722 mmHg 42%
    05:00 +23°C° 0 mm 2 m/S 722 mmHg 41%
    06:00 +25°C° 0 mm 2 m/S 723 mmHg 36%
    07:00 +28°C° 0 mm 2 m/S 723 mmHg 31%
    08:00 +31°C° 0 mm 1 m/S 724 mmHg 26%
    09:00 +32°C° 0 mm 2 m/S 724 mmHg 22%
    10:00 +34°C° 0 mm 2 m/S 723 mmHg 18%
    11:00 +36°C° 0 mm 3 m/S 723 mmHg 14%
    12:00 +36°C° 0 mm 3 m/S 723 mmHg 14%
    13:00 +37°C° 0 mm 3 m/S 722 mmHg 13%
    14:00 +38°C° 0 mm 3 m/S 721 mmHg 12%
    15:00 +38°C° 0 mm 3 m/S 721 mmHg 12%
    16:00 +37°C° 0 mm 2 m/S 720 mmHg 13%
    17:00 +37°C° 0 mm 2 m/S 720 mmHg 13%
    18:00 +34°C° 0 mm 3 m/S 720 mmHg 17%
    19:00 +31°C° 0 mm 3 m/S 720 mmHg 20%
    20:00 +28°C° 0 mm 3 m/S 720 mmHg 23%
    21:00 +28°C° 0 mm 3 m/S 720 mmHg 24%
    22:00 +27°C° 0 mm 3 m/S 721 mmHg 26%
    23:00 +26°C° 0 mm 3 m/S 721 mmHg 27%

    Morgen, 10 Dezember, Dienstag

    Zeit Temperatur Niederschläge Wind Luftdruck Luftfeuchtigkeit
    00:00 +26°C° 0 mm 2 m/S 721 mmHg 28%
    01:00 +25°C° 0 mm 2 m/S 721 mmHg 30%
    02:00 +25°C° 0 mm 2 m/S 721 mmHg 31%
    03:00 +25°C° 0 mm 2 m/S 721 mmHg 33%
    04:00 +25°C° 0 mm 3 m/S 721 mmHg 34%
    05:00 +25°C° 0 mm 3 m/S 721 mmHg 36%
    06:00 +27°C° 0 mm 3 m/S 721 mmHg 33%
    07:00 +30°C° 0 mm 3 m/S 722 mmHg 30%
    08:00 +33°C° 0 mm 3 m/S 722 mmHg 27%
    09:00 +35°C° 0 mm 3 m/S 722 mmHg 23%
    10:00 +36°C° 0 mm 3 m/S 722 mmHg 20%
    11:00 +38°C° 0 mm 3 m/S 722 mmHg 17%
    12:00 +39°C° 0 mm 3 m/S 721 mmHg 15%
    13:00 +39°C° 0 mm 3 m/S 721 mmHg 14%
    14:00 +40°C° 0 mm 2 m/S 720 mmHg 13%
    15:00 +40°C° 0 mm 2 m/S 720 mmHg 14%
    16:00 +40°C° 0 mm 2 m/S 719 mmHg 14%
    17:00 +39°C° 0 mm 2 m/S 718 mmHg 14%
    18:00 +37°C° 0 mm 2 m/S 719 mmHg 17%
    19:00 +34°C° 0 mm 3 m/S 719 mmHg 20%
    20:00 +31°C° 0 mm 3 m/S 719 mmHg 24%
    21:00 +30°C° 0 mm 3 m/S 719 mmHg 25%
    22:00 +29°C° 0 mm 3 m/S 719 mmHg 26%
    23:00 +28°C° 0 mm 3 m/S 719 mmHg 28%

    übermorgen, 11 Dezember, Mittwoch

    Zeit Temperatur Niederschläge Wind Luftdruck Luftfeuchtigkeit
    00:00 +28°C° 0 mm 3 m/S 719 mmHg 29%
    01:00 +27°C° 0 mm 3 m/S 719 mmHg 30%
    02:00 +27°C° 0 mm 2 m/S 719 mmHg 31%
    03:00 +27°C° 0 mm 2 m/S 718 mmHg 32%
    04:00 +26°C° 0 mm 2 m/S 718 mmHg 32%
    05:00 +26°C° 0 mm 2 m/S 718 mmHg 33%
    06:00 +29°C° 0 mm 3 m/S 718 mmHg 32%
    07:00 +31°C° 0 mm 3 m/S 719 mmHg 30%
    08:00 +35°C° 0 mm 4 m/S 719 mmHg 28%
    09:00 +36°C° 0 mm 4 m/S 718 mmHg 25%
    10:00 +38°C° 0 mm 4 m/S 718 mmHg 22%
    11:00 +41°C° 0 mm 4 m/S 718 mmHg 18%
    12:00 +42°C° 0 mm 4 m/S 717 mmHg 18%
    13:00 +42°C° 0 mm 4 m/S 716 mmHg 18%
    14:00 +42°C° 0 mm 5 m/S 715 mmHg 18%
    15:00 +42°C° 0 mm 4 m/S 715 mmHg 19%
    16:00 +40°C° 0 mm 3 m/S 714 mmHg 20%
    17:00 +40°C° 0 mm 2 m/S 714 mmHg 21%
    18:00 +36°C° 0 mm 4 m/S 714 mmHg 31%
    19:00 +32°C° 0 mm 5 m/S 715 mmHg 40%
    20:00 +27°C° 0 mm 6 m/S 716 mmHg 50%
    21:00 +26°C° 0.2 mm 5 m/S 716 mmHg 53%
    22:00 +25°C° 0.2 mm 4 m/S 717 mmHg 56%
    23:00 +23°C° 0.2 mm 4 m/S 718 mmHg 59%

    12 Dezember, Donnerstag

    Zeit Temperatur Niederschläge Wind Luftdruck Luftfeuchtigkeit
    00:00 +24°C° 0.2 mm 3 m/S 718 mmHg 61%
    01:00 +22°C° 0.2 mm 3 m/S 719 mmHg 62%
    02:00 +23°C° 0.2 mm 2 m/S 719 mmHg 63%
    03:00 +22°C° 0 mm 3 m/S 719 mmHg 59%
    04:00 +22°C° 0 mm 5 m/S 719 mmHg 54%
    05:00 +22°C° 0 mm 6 m/S 720 mmHg 50%
    06:00 +23°C° 0 mm 6 m/S 720 mmHg 40%
    07:00 +23°C° 0 mm 7 m/S 721 mmHg 30%
    08:00 +24°C° 0 mm 7 m/S 721 mmHg 20%
    09:00 +27°C° 0 mm 7 m/S 722 mmHg 17%
    10:00 +28°C° 0 mm 6 m/S 722 mmHg 15%
    11:00 +30°C° 0 mm 6 m/S 722 mmHg 12%
    12:00 +32°C° 0 mm 6 m/S 722 mmHg 11%
    13:00 +33°C° 0 mm 5 m/S 721 mmHg 10%
    14:00 +33°C° 0 mm 5 m/S 721 mmHg 9%
    15:00 +33°C° 0 mm 4 m/S 720 mmHg 10%
    16:00 +33°C° 0 mm 4 m/S 720 mmHg 10%
    17:00 +32°C° 0 mm 4 m/S 720 mmHg 10%
    18:00 +29°C° 0 mm 4 m/S 720 mmHg 12%
    19:00 +27°C° 0 mm 3 m/S 720 mmHg 13%
    20:00 +25°C° 0 mm 3 m/S 721 mmHg 15%
    21:00 +24°C° 0 mm 3 m/S 721 mmHg 16%
    22:00 +23°C° 0 mm 2 m/S 722 mmHg 17%
    23:00 +20°C° 0 mm 2 m/S 722 mmHg 18%

    13 Dezember, Freitag

    Zeit Temperatur Niederschläge Wind Luftdruck Luftfeuchtigkeit
    00:00 +20°C° 0 mm 2 m/S 722 mmHg 18%
    01:00 +19°C° 0 mm 2 m/S 722 mmHg 18%
    02:00 +19°C° 0 mm 2 m/S 722 mmHg 18%
    03:00 +18°C° 0 mm 2 m/S 722 mmHg 18%
    04:00 +18°C° 0 mm 2 m/S 722 mmHg 18%
    05:00 +17°C° 0 mm 2 m/S 722 mmHg 18%
    06:00 +19°C° 0 mm 2 m/S 723 mmHg 17%
    07:00 +20°C° 0 mm 2 m/S 723 mmHg 16%
    08:00 +23°C° 0 mm 2 m/S 724 mmHg 15%
    09:00 +25°C° 0 mm 3 m/S 724 mmHg 14%
    10:00 +27°C° 0 mm 3 m/S 724 mmHg 13%
    11:00 +29°C° 0 mm 4 m/S 723 mmHg 12%
    12:00 +30°C° 0 mm 5 m/S 723 mmHg 11%
    13:00 +32°C° 0 mm 5 m/S 722 mmHg 11%
    14:00 +33°C° 0 mm 6 m/S 722 mmHg 11%
    15:00 +32°C° 0 mm 6 m/S 721 mmHg 13%
    16:00 +32°C° 0 mm 6 m/S 721 mmHg 14%
    17:00 +32°C° 0 mm 5 m/S 720 mmHg 16%
    18:00 +29°C° 0 mm 4 m/S 720 mmHg 18%
    19:00 +27°C° 0 mm 4 m/S 720 mmHg 20%
    20:00 +25°C° 0 mm 3 m/S 720 mmHg 22%
    21:00 +25°C° 0 mm 3 m/S 721 mmHg 23%
    22:00 +25°C° 0 mm 2 m/S 721 mmHg 24%
    23:00 +25°C° 0 mm 2 m/S 722 mmHg 24%

    14 Dezember, Samstag

    Zeit Temperatur Niederschläge Wind Luftdruck Luftfeuchtigkeit
    00:00 +25°C° 0 mm 2 m/S 721 mmHg 25%
    01:00 +24°C° 0 mm 2 m/S 721 mmHg 26%
    02:00 +24°C° 0 mm 2 m/S 721 mmHg 27%
    03:00 +23°C° 0 mm 2 m/S 721 mmHg 29%
    04:00 +21°C° 0 mm 2 m/S 721 mmHg 31%
    05:00 +21°C° 0 mm 2 m/S 721 mmHg 34%
    06:00 +23°C° 0 mm 2 m/S 721 mmHg 33%
    07:00 +25°C° 0 mm 3 m/S 722 mmHg 32%
    08:00 +27°C° 0 mm 4 m/S 722 mmHg 31%
    09:00 +28°C° 0 mm 4 m/S 722 mmHg 31%
    10:00 +29°C° 0 mm 4 m/S 722 mmHg 30%
    11:00 +30°C° 0 mm 5 m/S 722 mmHg 29%
    12:00 +32°C° 0 mm 5 m/S 722 mmHg 29%
    13:00 +32°C° 0 mm 5 m/S 721 mmHg 29%
    14:00 +33°C° 0 mm 5 m/S 721 mmHg 29%
    15:00 +33°C° 0 mm 5 m/S 720 mmHg 31%
    16:00 +33°C° 0 mm 5 m/S 720 mmHg 33%
    17:00 +32°C° 0 mm 5 m/S 719 mmHg 34%
    18:00 +29°C° 0 mm 4 m/S 719 mmHg 41%
    19:00 +27°C° 0 mm 3 m/S 720 mmHg 47%
    20:00 +25°C° 0 mm 2 m/S 720 mmHg 54%
    21:00 +24°C° 0 mm 2 m/S 720 mmHg 57%
    22:00 +24°C° 0 mm 1 m/S 721 mmHg 59%
    23:00 +23°C° 0 mm 1 m/S 721 mmHg 62%
    Mehr zeigen